Location: Libas
(9.8833°N, 125.9833°E)
Time: 20:20:20
(UTC+00:00)

ADEOS Rocket - Pass Details

Date: 27 October 2020
Orbit: 859 x 1306 km, 98.7° (Epoch: 25 November)

Event Time Altitude Azimuth Distance (km) Brightness Sun altitude
Rises 19:35:20 0° 155° (SSE) 3,597 6.4 -27.5°
Reaches altitude 10° 19:37:55 10° 149° (SSE) 2,603 5.7 -26.9°
Maximum altitude 19:43:22 47° 77° (ENE) 1,148 3.7 -25.5°
Drops below altitude 10° 19:48:35 10° 4° (N) 2,489 5.1 -24.3°
Sets 19:51:00 0° 359° (N) 3,424 5.8 -23.7°
